| time (UTC) | temp F | wind direction | speed MPH | gust MPH | rain 1hr in | rain 24hr in | rain mn in | humidity % | barometer mb |
| 20260906104523 | 57 | 227 | 1.0 | 2.0 | 0.00 | 0.00 | 0.00 | 99 | 679.6 |
| 20260906103426 | 57 | 241 | 1.0 | 2.0 | 0.00 | 0.00 | 0.00 | 99 | 679.6 |
| 20260906102522 | 57 | 222 | 1.0 | 3.0 | 0.00 | 0.00 | 0.00 | 99 | 679.6 |
| 20260906101441 | 57 | 219 | 2.0 | 3.0 | 0.00 | 0.00 | 0.00 | 99 | 679.6 |
| 20260906100527 | 57 | 244 | 1.0 | 2.0 | 0.00 | 0.00 | 0.00 | 99 | 679.6 |
| 20260906095501 | 57 | 257 | 1.0 | 2.0 | 0.00 | 0.00 | 0.00 | 99 | 679.6 |
| 20260906094508 | 58 | 228 | 1.0 | 3.0 | 0.00 | 0.00 | 0.00 | 99 | 679.6 |
| 20260906093501 | 58 | 218 | 2.0 | 3.0 | 0.00 | 0.00 | 0.00 | 99 | 679.6 |
| 20260906092447 | 58 | 225 | 1.0 | 2.0 | 0.00 | 0.00 | 0.00 | 99 | 679.6 |
| 20260906091527 | 58 | 240 | 1.0 | 2.0 | 0.00 | 0.00 | 0.00 | 99 | 679.6 |
| 20260906090442 | 58 | 240 | 0.0 | 1.0 | 0.00 | 0.00 | 0.00 | 99 | 679.6 |
| 20260906085548 | 58 | 262 | 0.0 | 1.0 | 0.00 | 0.00 | 0.00 | 99 | 679.6 |
| 20260906084528 | 58 | 270 | 1.0 | 2.0 | 0.00 | 0.00 | 0.00 | 99 | 679.6 |
| 20260906083442 | 58 | 272 | 0.0 | 2.0 | 0.00 | 0.00 | 0.00 | 99 | 679.6 |
| 20260906082604 | 58 | 259 | 1.0 | 3.0 | 0.00 | 0.00 | 0.00 | 99 | 679.6 |
| 20260906081513 | 58 | 277 | 1.0 | 2.0 | 0.00 | 0.00 | 0.00 | 99 | 679.6 |
| 20260906080442 | 58 | 217 | 1.0 | 2.0 | 0.00 | 0.00 | 0.00 | 99 | 679.6 |
| 20260906075513 | 59 | 261 | 1.0 | 2.0 | 0.00 | 0.00 | 0.00 | 99 | 679.6 |
| 20260906074449 | 59 | 263 | 1.0 | 4.0 | 0.00 | 0.00 | 0.00 | 99 | 679.6 |
| 20260906073503 | 59 | 221 | 2.0 | 3.0 | 0.00 | 0.00 | 0.00 | 99 | 679.6 |
| 20260906072429 | 59 | 217 | 1.0 | 3.0 | 0.00 | 0.00 | 0.00 | 99 | 679.6 |
| 20260906071444 | 59 | 219 | 2.0 | 3.0 | 0.00 | 0.00 | 0.00 | 99 | 679.7 |
| 20260906070459 | 59 | 226 | 2.0 | 3.0 | 0.00 | 0.00 | 0.00 | 99 | 679.7 |
| 20260906065444 | 59 | 241 | 1.0 | 2.0 | 0.00 | 0.00 | 0.00 | 99 | 679.7 |
| 20260906064429 | 59 | 218 | 2.0 | 3.0 | 0.00 | 0.00 | 0.00 | 99 | 679.7 |
| 20260906063506 | 60 | 230 | 1.0 | 2.0 | 0.00 | 0.00 | 0.00 | 99 | 679.7 |
| 20260906062505 | 60 | 228 | 1.0 | 2.0 | 0.00 | 0.00 | 0.00 | 99 | 679.7 |
| 20260906061544 | 60 | 220 | 1.0 | 2.0 | 0.00 | 0.00 | 0.00 | 99 | 679.7 |
| 20260906060644 | 60 | 226 | 1.0 | 3.0 | 0.00 | 0.00 | 0.00 | 99 | 679.7 |
| 20260906055430 | 60 | 216 | 2.0 | 3.0 | 0.00 | 0.00 | 0.00 | 99 | 679.7 |
| 20260906054445 | 60 | 235 | 0.0 | 1.0 | 0.00 | 0.00 | 0.00 | 99 | 679.7 |
| 20260906053515 | 60 | 220 | 2.0 | 3.0 | 0.00 | 0.00 | 0.00 | 99 | 679.7 |
| 20260906052445 | 60 | 212 | 2.0 | 3.0 | 0.00 | 0.00 | 0.00 | 99 | 679.7 |
| 20260906051506 | 60 | 215 | 2.0 | 3.0 | 0.00 | 0.00 | 0.00 | 99 | 679.7 |
| 20260906050448 | 61 | 263 | 2.0 | 4.0 | 0.00 | 0.00 | 0.00 | 99 | 679.7 |
| 20260906045625 | 61 | 216 | 2.0 | 4.0 | 0.00 | 0.00 | 0.00 | 99 | 679.7 |
| 20260906044506 | 61 | 215 | 2.0 | 2.0 | 0.00 | 0.00 | 0.00 | 99 | 679.7 |
| 20260906043431 | 61 | 259 | 1.0 | 2.0 | 0.00 | 0.00 | 0.00 | 99 | 679.8 |
| 20260906042753 | 61 | 263 | 1.0 | 2.0 | 0.00 | 0.00 | 0.00 | 99 | 679.8 |
| 20260906041431 | 62 | 246 | 2.0 | 4.0 | 0.00 | 0.00 | 0.00 | 99 | 679.8 |
| 20260906040446 | 62 | 252 | 2.0 | 3.0 | 0.00 | 0.00 | 0.00 | 99 | 679.8 |
| 20260906035452 | 62 | 219 | 4.0 | 5.0 | 0.00 | 0.00 | 0.00 | 99 | 679.8 |
| 20260906034517 | 62 | 215 | 4.0 | 6.0 | 0.00 | 0.00 | 0.00 | 99 | 679.8 |
| 20260906033508 | 62 | 227 | 2.0 | 4.0 | 0.00 | 0.00 | 0.00 | 99 | 679.8 |
| 20260906032537 | 62 | 221 | 4.0 | 7.0 | 0.00 | 0.00 | 0.00 | 99 | 679.8 |
| 20260906031432 | 63 | 212 | 3.0 | 5.0 | 0.00 | 0.00 | 0.00 | 99 | 679.8 |
| 20260906030522 | 63 | 221 | 4.0 | 6.0 | 0.00 | 0.00 | 0.00 | 99 | 679.8 |
| 20260906025509 | 63 | 222 | 3.0 | 6.0 | 0.00 | 0.00 | 0.00 | 99 | 679.8 |
| 20260906024538 | 63 | 219 | 4.0 | 7.0 | 0.00 | 0.00 | 0.00 | 99 | 679.8 |
| 20260906023509 | 63 | 194 | 2.0 | 3.0 | 0.00 | 0.00 | 0.00 | 99 | 679.8 |
| 20260906022523 | 63 | 177 | 2.0 | 3.0 | 0.00 | 0.00 | 0.00 | 99 | 679.8 |
| 20260906021432 | 63 | 253 | 0.0 | 1.0 | 0.00 | 0.00 | 0.00 | 99 | 679.8 |
| 20260906020510 | 64 | 159 | 1.0 | 2.0 | 0.00 | 0.00 | 0.00 | 99 | 679.8 |
| 20260906015610 | 64 | 163 | 1.0 | 2.0 | 0.00 | 0.00 | 0.00 | 99 | 679.8 |
| 20260906014524 | 64 | 150 | 1.0 | 3.0 | 0.00 | 0.00 | 0.00 | 99 | 679.8 |
| 20260906013504 | 64 | 152 | 1.0 | 2.0 | 0.00 | 0.00 | 0.00 | 99 | 679.8 |
| 20260906012434 | 65 | 159 | 2.0 | 2.0 | 0.00 | 0.00 | 0.00 | 99 | 679.8 |
| 20260906011615 | 65 | 152 | 2.0 | 4.0 | 0.00 | 0.00 | 0.00 | 99 | 679.9 |
| 20260906010538 | 65 | 164 | 1.0 | 2.0 | 0.00 | 0.00 | 0.00 | 99 | 679.9 |
| 20260906005549 | 66 | 125 | 2.0 | 2.0 | 0.00 | 0.00 | 0.00 | 99 | 679.9 |
| 20260906004634 | 66 | 145 | 2.0 | 2.0 | 0.00 | 0.00 | 0.00 | 99 | 679.9 |
| 20260906003539 | 67 | 139 | 1.0 | 3.0 | 0.00 | 0.00 | 0.00 | 99 | 679.9 |
| 20260906002634 | 67 | 164 | 1.0 | 2.0 | 0.00 | 0.00 | 0.00 | 99 | 679.9 |
| 20260906001529 | 68 | 134 | 2.0 | 3.0 | 0.00 | 0.00 | 0.00 | 99 | 679.9 |
| 20260906000505 | 68 | 157 | 2.0 | 4.0 | 0.00 | 0.00 | 0.00 | 99 | 679.9 |
| 20260905235704 | 69 | 117 | 2.0 | 4.0 | 0.00 | 0.00 | 0.00 | 99 | 680.0 |
| 20260905234511 | 69 | 109 | 2.0 | 3.0 | 0.00 | 0.00 | 0.00 | 99 | 680.0 |
| 20260905233512 | 70 | 133 | 2.0 | 3.0 | 0.00 | 0.00 | 0.00 | 98 | 680.0 |
| 20260905232511 | 71 | 132 | 2.0 | 4.0 | 0.00 | 0.00 | 0.00 | 97 | 680.0 |
| 20260905231550 | 71 | 135 | 1.0 | 4.0 | 0.00 | 0.00 | 0.00 | 95 | 680.0 |
| 20260905230506 | 72 | 129 | 3.0 | 6.0 | 0.00 | 0.00 | 0.00 | 93 | 680.0 |
| 20260905225556 | 72 | 146 | 2.0 | 3.0 | 0.00 | 0.00 | 0.00 | 93 | 680.0 |
| 20260905224451 | 73 | 166 | 1.0 | 3.0 | 0.00 | 0.00 | 0.00 | 93 | 680.1 |
| 20260905223507 | 74 | 138 | 3.0 | 3.0 | 0.00 | 0.00 | 0.00 | 93 | 680.1 |
| 20260905222451 | 75 | 111 | 2.0 | 4.0 | 0.00 | 0.00 | 0.00 | 93 | 680.1 |
| 20260905221513 | 75 | 158 | 3.0 | 6.0 | 0.00 | 0.00 | 0.00 | 93 | 680.1 |
| 20260905220551 | 76 | 129 | 3.0 | 4.0 | 0.00 | 0.00 | 0.00 | 91 | 680.1 |
| 20260905215456 | 77 | 109 | 2.0 | 4.0 | 0.00 | 0.00 | 0.00 | 91 | 680.1 |
| 20260905214511 | 77 | 148 | 3.0 | 5.0 | 0.00 | 0.00 | 0.00 | 93 | 680.1 |
| 20260905213507 | 77 | 141 | 5.0 | 9.0 | 0.00 | 0.00 | 0.00 | 94 | 680.1 |
| 20260905212452 | 77 | 149 | 3.0 | 4.0 | 0.00 | 0.00 | 0.00 | 96 | 680.1 |
| 20260905211456 | 77 | 154 | 3.0 | 4.0 | 0.00 | 0.00 | 0.00 | 99 | 680.2 |
| 20260905210452 | 77 | 121 | 2.0 | 6.0 | 0.00 | 0.00 | 0.00 | 99 | 680.1 |
| 20260905205556 | 77 | 163 | 4.0 | 6.0 | 0.00 | 0.00 | 0.00 | 99 | 680.1 |
| 20260905204552 | 77 | 157 | 3.0 | 5.0 | 0.00 | 0.00 | 0.00 | 99 | 680.1 |
| 20260905203455 | 77 | 157 | 3.0 | 4.0 | 0.00 | 0.00 | 0.00 | 98 | 680.2 |
| 20260905202538 | 76 | 174 | 4.0 | 6.0 | 0.00 | 0.00 | 0.00 | 98 | 680.1 |
| 20260905201637 | 76 | 192 | 1.0 | 2.0 | 0.00 | 0.00 | 0.00 | 91 | 680.1 |
| 20260905200515 | 77 | 178 | 3.0 | 4.0 | 0.00 | 0.00 | 0.00 | 90 | 680.1 |
| 20260905195438 | 77 | 185 | 3.0 | 4.0 | 0.00 | 0.00 | 0.00 | 91 | 680.2 |
| 20260905194514 | 77 | 225 | 5.0 | 8.0 | 0.00 | 0.00 | 0.00 | 90 | 680.1 |
| 20260905193439 | 77 | 212 | 3.0 | 6.0 | 0.00 | 0.00 | 0.00 | 91 | 680.1 |
| 20260905192453 | 76 | 211 | 3.0 | 4.0 | 0.00 | 0.00 | 0.00 | 91 | 680.1 |
| 20260905191759 | 77 | 210 | 3.0 | 5.0 | 0.00 | 0.00 | 0.00 | 91 | 680.2 |
| 20260905190539 | 77 | 198 | 2.0 | 5.0 | 0.00 | 0.00 | 0.00 | 91 | 680.2 |
| 20260905185509 | 76 | 215 | 5.0 | 8.0 | 0.00 | 0.00 | 0.00 | 89 | 680.1 |
| 20260905184516 | 76 | 213 | 4.0 | 6.0 | 0.00 | 0.00 | 0.00 | 91 | 680.1 |
| 20260905183509 | 77 | 175 | 2.0 | 4.0 | 0.00 | 0.00 | 0.00 | 92 | 680.2 |
| 20260905182515 | 77 | 164 | 2.0 | 4.0 | 0.00 | 0.00 | 0.00 | 91 | 680.2 |
| 20260905181454 | 77 | 208 | 2.0 | 4.0 | 0.00 | 0.00 | 0.00 | 91 | 680.1 |
| 20260905180440 | 76 | 226 | 2.0 | 4.0 | 0.00 | 0.00 | 0.00 | 91 | 680.2 |
| 20260905175555 | 76 | 201 | 2.0 | 6.0 | 0.00 | 0.00 | 0.00 | 93 | 680.1 |
| 20260905174529 | 77 | 244 | 3.0 | 3.0 | 0.00 | 0.00 | 0.00 | 91 | 680.2 |
| 20260905173523 | 77 | 284 | 4.0 | 6.0 | 0.00 | 0.00 | 0.00 | 91 | 680.2 |
| 20260905172455 | 77 | 197 | 2.0 | 2.0 | 0.00 | 0.00 | 0.00 | 93 | 680.2 |
| 20260905171441 | 77 | 0.0 | 0.0 | 0.00 | 0.00 | 0.00 | 92 | 680.1 | |
| 20260905170456 | 77 | 264 | 3.0 | 4.0 | 0.00 | 0.00 | 0.00 | 91 | 680.2 |
| 20260905165455 | 77 | 215 | 2.0 | 5.0 | 0.00 | 0.00 | 0.00 | 91 | 680.2 |
| 20260905164545 | 78 | 214 | 5.0 | 9.0 | 0.00 | 0.00 | 0.00 | 92 | 680.2 |
| 20260905163441 | 78 | 227 | 3.0 | 4.0 | 0.00 | 0.00 | 0.00 | 92 | 680.2 |
| 20260905162456 | 78 | 224 | 4.0 | 7.0 | 0.00 | 0.00 | 0.00 | 91 | 680.2 |
| 20260905161632 | 78 | 278 | 4.0 | 7.0 | 0.00 | 0.00 | 0.00 | 92 | 680.2 |
| 20260905160511 | 78 | 227 | 4.0 | 5.0 | 0.00 | 0.00 | 0.00 | 90 | 680.2 |
| 20260905155656 | 79 | 247 | 4.0 | 7.0 | 0.00 | 0.00 | 0.00 | 91 | 680.2 |
| 20260905154456 | 78 | 209 | 4.0 | 7.0 | 0.00 | 0.00 | 0.00 | 94 | 680.2 |
| 20260905153456 | 77 | 237 | 4.0 | 7.0 | 0.00 | 0.00 | 0.00 | 94 | 680.1 |
| 20260905152557 | 76 | 248 | 4.0 | 6.0 | 0.00 | 0.00 | 0.00 | 92 | 680.1 |
| 20260905151540 | 76 | 230 | 3.0 | 8.0 | 0.00 | 0.00 | 0.00 | 94 | 680.1 |
| 20260905150457 | 75 | 255 | 3.0 | 5.0 | 0.00 | 0.00 | 0.00 | 97 | 680.1 |
| 20260905145442 | 74 | 269 | 3.0 | 7.0 | 0.00 | 0.00 | 0.00 | 99 | 680.1 |
| 20260905144442 | 73 | 0.0 | 0.0 | 0.00 | 0.00 | 0.00 | 98 | 680.0 | |
| 20260905143558 | 71 | 260 | 3.0 | 6.0 | 0.00 | 0.00 | 0.00 | 99 | 680.0 |
| 20260905142457 | 70 | 234 | 3.0 | 6.0 | 0.00 | 0.00 | 0.00 | 99 | 679.9 |
| 20260905141520 | 69 | 266 | 2.0 | 4.0 | 0.00 | 0.00 | 0.00 | 99 | 679.9 |
| 20260905140520 | 67 | 261 | 3.0 | 4.0 | 0.00 | 0.00 | 0.00 | 99 | 679.9 |
| 20260905135458 | 67 | 246 | 3.0 | 5.0 | 0.00 | 0.00 | 0.00 | 99 | 679.9 |
| 20260905134527 | 66 | 284 | 3.0 | 6.0 | 0.00 | 0.00 | 0.00 | 99 | 679.9 |
| 20260905133513 | 65 | 275 | 3.0 | 7.0 | 0.00 | 0.00 | 0.00 | 99 | 679.9 |
| 20260905132443 | 65 | 301 | 2.0 | 6.0 | 0.00 | 0.00 | 0.00 | 99 | 679.8 |
| 20260905131541 | 64 | 267 | 3.0 | 5.0 | 0.00 | 0.00 | 0.00 | 99 | 679.8 |
| 20260905130521 | 64 | 245 | 2.0 | 4.0 | 0.00 | 0.00 | 0.00 | 99 | 679.8 |
| 20260905125459 | 63 | 232 | 2.0 | 3.0 | 0.00 | 0.00 | 0.00 | 99 | 679.8 |
| 20260905124444 | 63 | 249 | 2.0 | 4.0 | 0.00 | 0.00 | 0.00 | 99 | 679.8 |
| 20260905123522 | 62 | 240 | 2.0 | 5.0 | 0.00 | 0.00 | 0.00 | 99 | 679.8 |
| 20260905122459 | 62 | 264 | 2.0 | 3.0 | 0.00 | 0.00 | 0.00 | 99 | 679.8 |
| 20260905121444 | 61 | 253 | 2.0 | 4.0 | 0.00 | 0.00 | 0.00 | 99 | 679.8 |
| 20260905120502 | 0 | 0.0 | 0.0 | 0.00 | 0.00 | 0.00 | |||
| 20260905115500 | 61 | 252 | 1.0 | 3.0 | 0.00 | 0.00 | 0.00 | 99 | 679.7 |
| 20260905114523 | 60 | 267 | 1.0 | 2.0 | 0.00 | 0.00 | 0.00 | 99 | 679.7 |
| 20260905113500 | 60 | 245 | 1.0 | 1.0 | 0.00 | 0.00 | 0.00 | 99 | 679.7 |
| 20260905112543 | 60 | 253 | 1.0 | 2.0 | 0.00 | 0.00 | 0.00 | 99 | 679.7 |
| 20260905111500 | 60 | 218 | 0.0 | 1.0 | 0.00 | 0.00 | 0.00 | 99 | 679.7 |
| 20260905110500 | 60 | 252 | 0.0 | 1.0 | 0.00 | 0.00 | 0.00 | 99 | 679.8 |
| 20260905105523 | 61 | 0.0 | 0.0 | 0.00 | 0.00 | 0.00 | 99 | 679.8 |